Location: Barrialito
(10.3588°N, 66.9747°W)
Time: 16:12:36
(UTC+00:00)

N. Korean satellite - Visible Passes

Search period start: 04 December 2022 00:00
Search period end: 14 December 2022 00:00
Orbit: 421 x 453 km, 97.3° (Epoch: 03 December)

Date Brightness Start Highest point End Pass type
(mag) Time Alt. Az. Time Alt. Az. Time Alt. Az.
04 Dec 7.1 09:51:56 10° NNW 09:54:57 32° WNW 09:57:56 10° SW visible
05 Dec 7.6 09:12:59 10° NNE 09:16:09 42° E 09:19:18 10° S visible
06 Dec 7.8 10:07:11 10° NNW 10:09:32 18° WNW 10:11:53 10° WSW visible
07 Dec 6.3 09:27:24 10° NNE 09:30:43 83° E 09:33:59 10° S visible
08 Dec 9.5 08:49:41 10° ENE 08:51:46 16° E 08:53:51 10° SE visible
09 Dec 6.5 09:41:55 10° N 09:45:08 49° W 09:48:18 10° SSW visible
10 Dec 8.5 09:03:18 10° NE 09:06:09 27° E 09:08:57 10° SSE visible
11 Dec 7.3 09:56:33 10° NNW 09:59:23 27° WNW 10:02:12 10° SW visible
12 Dec 7.2 09:17:11 10° NNE 09:20:21 50° E 09:23:31 10° S visible
13 Dec 9.9 08:40:48 10° E 08:41:14 10° E 08:41:40 10° ESE visible
13 Dec 8.0 10:11:26 10° NW 10:13:29 16° WNW 10:15:32 10° WSW visible
